Year,Month,Day,Hour,Minute,Value (Times are PST for temperature in C)
2019,03,18,00,00,4.60
2019,03,18,00,01,4.60
2019,03,18,00,02,4.60
2019,03,18,00,03,4.60
2019,03,18,00,04,4.60
2019,03,18,00,05,4.50
2019,03,18,00,06,4.50
2019,03,18,00,07,4.50
2019,03,18,00,08,4.50
2019,03,18,00,09,4.40
2019,03,18,00,10,4.40
2019,03,18,00,11,4.40
2019,03,18,00,12,4.40
2019,03,18,00,13,4.40
2019,03,18,00,14,4.30
2019,03,18,00,15,4.30
2019,03,18,00,16,4.30
2019,03,18,00,17,4.30
2019,03,18,00,18,4.30
2019,03,18,00,19,4.30
2019,03,18,00,20,4.30
2019,03,18,00,21,4.20
2019,03,18,00,22,4.20
2019,03,18,00,23,4.20
2019,03,18,00,24,4.20
2019,03,18,00,25,4.20
2019,03,18,00,26,4.20
2019,03,18,00,27,4.20
2019,03,18,00,28,4.20
2019,03,18,00,29,4.20
2019,03,18,00,30,4.10
2019,03,18,00,31,4.10
2019,03,18,00,32,4.10
2019,03,18,00,33,4.10
2019,03,18,00,34,4.10
2019,03,18,00,35,4.10
2019,03,18,00,36,4.10
2019,03,18,00,37,4.10
2019,03,18,00,38,4.10
2019,03,18,00,39,4.10
2019,03,18,00,40,4.10
2019,03,18,00,41,4.20
2019,03,18,00,42,4.20
2019,03,18,00,43,4.20
2019,03,18,00,44,4.20
2019,03,18,00,45,4.20
2019,03,18,00,46,4.20
2019,03,18,00,47,4.20
2019,03,18,00,48,4.20
2019,03,18,00,49,4.20
2019,03,18,00,50,4.10
2019,03,18,00,51,4.10
2019,03,18,00,52,4.10
2019,03,18,00,53,4.00
2019,03,18,00,54,4.00
2019,03,18,00,55,4.00
2019,03,18,00,56,3.90
2019,03,18,00,57,3.90
2019,03,18,00,58,3.90
2019,03,18,00,59,3.90
2019,03,18,01,00,3.80
2019,03,18,01,01,3.80
2019,03,18,01,02,3.80
2019,03,18,01,03,3.70
2019,03,18,01,04,3.70
2019,03,18,01,05,3.70
2019,03,18,01,06,3.70
2019,03,18,01,07,3.70
2019,03,18,01,08,3.60
2019,03,18,01,09,3.60
2019,03,18,01,10,3.60
2019,03,18,01,11,3.60
2019,03,18,01,12,3.60
2019,03,18,01,13,3.50
2019,03,18,01,14,3.50
2019,03,18,01,15,3.50
2019,03,18,01,16,3.50
2019,03,18,01,17,3.50
2019,03,18,01,18,3.50
2019,03,18,01,19,3.50
2019,03,18,01,20,3.50
2019,03,18,01,21,3.60
2019,03,18,01,22,3.50
2019,03,18,01,23,3.50
2019,03,18,01,24,3.60
2019,03,18,01,25,3.60
2019,03,18,01,26,3.60
2019,03,18,01,27,3.60
2019,03,18,01,28,3.60
2019,03,18,01,29,3.60
2019,03,18,01,30,3.60
2019,03,18,01,31,3.60
2019,03,18,01,32,3.60
2019,03,18,01,33,3.50
2019,03,18,01,34,3.50
2019,03,18,01,35,3.50
2019,03,18,01,36,3.40
2019,03,18,01,37,3.40
2019,03,18,01,38,3.40
2019,03,18,01,39,3.40
2019,03,18,01,40,3.40
2019,03,18,01,41,3.40
2019,03,18,01,42,3.40
2019,03,18,01,43,3.30
2019,03,18,01,44,3.30
2019,03,18,01,45,3.30
2019,03,18,01,46,3.30
2019,03,18,01,47,3.30
2019,03,18,01,48,3.30
2019,03,18,01,49,3.30
2019,03,18,01,50,3.30
2019,03,18,01,51,3.30
2019,03,18,01,52,3.30
2019,03,18,01,53,3.30
2019,03,18,01,54,3.30
2019,03,18,01,55,3.30
2019,03,18,01,56,3.20
2019,03,18,01,57,3.20
2019,03,18,01,58,3.20
2019,03,18,01,59,3.10
2019,03,18,02,00,3.10
2019,03,18,02,01,3.00
2019,03,18,02,02,3.00
2019,03,18,02,03,2.90
2019,03,18,02,04,2.90
2019,03,18,02,05,2.90
2019,03,18,02,06,2.90
2019,03,18,02,07,2.80
2019,03,18,02,08,2.80
2019,03,18,02,09,2.80
2019,03,18,02,10,2.80
2019,03,18,02,11,2.80
2019,03,18,02,12,2.70
2019,03,18,02,13,2.70
2019,03,18,02,14,2.70
2019,03,18,02,15,2.70
2019,03,18,02,16,2.70
2019,03,18,02,17,2.70
2019,03,18,02,18,2.70
2019,03,18,02,19,2.70
2019,03,18,02,20,2.70
2019,03,18,02,21,2.80
2019,03,18,02,22,2.80
2019,03,18,02,23,2.80
2019,03,18,02,24,2.80
2019,03,18,02,25,2.80
2019,03,18,02,26,2.80
2019,03,18,02,27,2.80
2019,03,18,02,28,2.70
2019,03,18,02,29,2.70
2019,03,18,02,30,2.70
2019,03,18,02,31,2.70
2019,03,18,02,32,2.70
2019,03,18,02,33,2.70
2019,03,18,02,34,2.70
2019,03,18,02,35,2.70
2019,03,18,02,36,2.70
2019,03,18,02,37,2.70
2019,03,18,02,38,2.70
2019,03,18,02,39,2.70
2019,03,18,02,40,2.80
2019,03,18,02,41,2.90
2019,03,18,02,42,2.90
2019,03,18,02,43,3.10
2019,03,18,02,44,3.20
2019,03,18,02,45,3.30
2019,03,18,02,46,3.50
2019,03,18,02,47,3.70
2019,03,18,02,48,3.90
2019,03,18,02,49,4.10
2019,03,18,02,50,4.30
2019,03,18,02,51,4.50
2019,03,18,02,52,4.70
2019,03,18,02,53,4.90
2019,03,18,02,54,5.00
2019,03,18,02,55,5.20
2019,03,18,02,56,5.30
2019,03,18,02,57,5.40
2019,03,18,02,58,5.50
2019,03,18,02,59,5.50
2019,03,18,03,00,5.50
2019,03,18,03,01,5.50
2019,03,18,03,02,5.50
2019,03,18,03,03,5.40
2019,03,18,03,04,5.40
2019,03,18,03,05,5.30
2019,03,18,03,06,5.20
2019,03,18,03,07,5.10
2019,03,18,03,08,5.00
2019,03,18,03,09,4.90
2019,03,18,03,10,4.80
2019,03,18,03,11,4.60
2019,03,18,03,12,4.50
2019,03,18,03,13,4.40
2019,03,18,03,14,4.30
2019,03,18,03,15,4.20
2019,03,18,03,16,4.20
2019,03,18,03,17,4.10
2019,03,18,03,18,4.00
2019,03,18,03,19,3.90
2019,03,18,03,20,3.80
2019,03,18,03,21,3.80
2019,03,18,03,22,3.80
2019,03,18,03,23,3.70
2019,03,18,03,24,3.70
2019,03,18,03,25,3.60
2019,03,18,03,26,3.60
2019,03,18,03,27,3.60
2019,03,18,03,28,3.60
2019,03,18,03,29,3.50
2019,03,18,03,30,3.50
2019,03,18,03,31,3.50
2019,03,18,03,32,3.40
2019,03,18,03,33,3.40
2019,03,18,03,34,3.40
2019,03,18,03,35,3.30
2019,03,18,03,36,3.30
2019,03,18,03,37,3.30
2019,03,18,03,38,3.30
2019,03,18,03,39,3.30
2019,03,18,03,40,3.30
2019,03,18,03,41,3.30
2019,03,18,03,42,3.30
2019,03,18,03,43,3.30
2019,03,18,03,44,3.30
2019,03,18,03,45,3.30
2019,03,18,03,46,3.30
2019,03,18,03,47,3.30
2019,03,18,03,48,3.30
2019,03,18,03,49,3.30
2019,03,18,03,50,3.30
2019,03,18,03,51,3.30
2019,03,18,03,52,3.20
2019,03,18,03,53,3.20
2019,03,18,03,54,3.30
2019,03,18,03,55,3.30
2019,03,18,03,56,3.40
2019,03,18,03,57,3.40
2019,03,18,03,58,3.50
2019,03,18,03,59,3.60
2019,03,18,04,00,3.60
2019,03,18,04,01,3.60
2019,03,18,04,02,3.60
2019,03,18,04,03,3.60
2019,03,18,04,04,3.70
2019,03,18,04,05,3.70
2019,03,18,04,06,3.70
2019,03,18,04,07,3.70
2019,03,18,04,08,3.70
2019,03,18,04,09,3.70
2019,03,18,04,10,3.70
2019,03,18,04,11,3.80
2019,03,18,04,12,3.80
2019,03,18,04,13,3.80
2019,03,18,04,14,3.90
2019,03,18,04,15,4.00
2019,03,18,04,16,4.00
2019,03,18,04,17,4.10
2019,03,18,04,18,4.10
2019,03,18,04,19,4.10
2019,03,18,04,20,4.20
2019,03,18,04,21,4.20
2019,03,18,04,22,4.10
2019,03,18,04,23,4.10
2019,03,18,04,24,4.10
2019,03,18,04,25,4.00
2019,03,18,04,26,3.90
2019,03,18,04,27,3.90
2019,03,18,04,28,3.90
2019,03,18,04,29,3.90
2019,03,18,04,30,4.00
2019,03,18,04,31,4.10
2019,03,18,04,32,4.10
2019,03,18,04,33,4.20
2019,03,18,04,34,4.20
2019,03,18,04,35,4.20
2019,03,18,04,36,4.20
2019,03,18,04,37,4.30
2019,03,18,04,38,4.30
2019,03,18,04,39,4.30
2019,03,18,04,40,4.30
2019,03,18,04,41,4.20
2019,03,18,04,42,4.20
2019,03,18,04,43,4.20
2019,03,18,04,44,4.20
2019,03,18,04,45,4.20
2019,03,18,04,46,4.20
2019,03,18,04,47,4.30
2019,03,18,04,48,4.30
2019,03,18,04,49,4.50
2019,03,18,04,50,4.70
2019,03,18,04,51,4.80
2019,03,18,04,52,5.00
2019,03,18,04,53,5.20
2019,03,18,04,54,5.40
2019,03,18,04,55,5.50
2019,03,18,04,56,5.70
2019,03,18,04,57,6.00
2019,03,18,04,58,6.20
2019,03,18,04,59,6.40
2019,03,18,05,00,6.60
2019,03,18,05,01,6.80
2019,03,18,05,02,6.90
2019,03,18,05,03,7.00
2019,03,18,05,04,7.10
2019,03,18,05,05,7.20
2019,03,18,05,06,7.20
2019,03,18,05,07,7.20
2019,03,18,05,08,7.20
2019,03,18,05,09,7.20
2019,03,18,05,10,7.20
2019,03,18,05,11,7.30
2019,03,18,05,12,7.30
2019,03,18,05,13,7.30
2019,03,18,05,14,7.40
2019,03,18,05,15,7.40
2019,03,18,05,16,7.40
2019,03,18,05,17,7.50
2019,03,18,05,18,7.50
2019,03,18,05,19,7.60
2019,03,18,05,20,7.60
2019,03,18,05,21,7.60
2019,03,18,05,22,7.60
2019,03,18,05,23,7.60
2019,03,18,05,24,7.60
2019,03,18,05,25,7.50
2019,03,18,05,26,7.50
2019,03,18,05,27,7.40
2019,03,18,05,28,7.40
2019,03,18,05,29,7.40
2019,03,18,05,30,7.30
2019,03,18,05,31,7.30
2019,03,18,05,32,7.20
2019,03,18,05,33,7.20
2019,03,18,05,34,7.20
2019,03,18,05,35,7.20
2019,03,18,05,36,7.20
2019,03,18,05,37,7.20
2019,03,18,05,38,7.20
2019,03,18,05,39,7.20
2019,03,18,05,40,7.30
2019,03,18,05,41,7.30
2019,03,18,05,42,7.30
2019,03,18,05,43,7.30
2019,03,18,05,44,7.20
2019,03,18,05,45,7.20
2019,03,18,05,46,7.20
2019,03,18,05,47,7.10
2019,03,18,05,48,7.10
2019,03,18,05,49,7.00
2019,03,18,05,50,6.90
2019,03,18,05,51,6.70
2019,03,18,05,52,6.60
2019,03,18,05,53,6.50
2019,03,18,05,54,6.40
2019,03,18,05,55,6.30
2019,03,18,05,56,6.30
2019,03,18,05,57,6.20
2019,03,18,05,58,6.10
2019,03,18,05,59,6.10
2019,03,18,06,00,6.10
2019,03,18,06,01,6.10
2019,03,18,06,02,6.10
2019,03,18,06,03,6.20
2019,03,18,06,04,6.20
2019,03,18,06,05,6.20
2019,03,18,06,06,6.20
2019,03,18,06,07,6.20
2019,03,18,06,08,6.20
2019,03,18,06,09,6.20
2019,03,18,06,10,6.30
2019,03,18,06,11,6.40
2019,03,18,06,12,6.40
2019,03,18,06,13,6.50
2019,03,18,06,14,6.50
2019,03,18,06,15,6.40
2019,03,18,06,16,6.40
2019,03,18,06,17,6.40
2019,03,18,06,18,6.40
2019,03,18,06,19,6.40
2019,03,18,06,20,6.40
2019,03,18,06,21,6.40
2019,03,18,06,22,6.40
2019,03,18,06,23,6.40
2019,03,18,06,24,6.40
2019,03,18,06,25,6.30
2019,03,18,06,26,6.30
2019,03,18,06,27,6.20
2019,03,18,06,28,6.10
2019,03,18,06,29,6.00
2019,03,18,06,30,5.90
2019,03,18,06,31,5.80
2019,03,18,06,32,5.70
2019,03,18,06,33,5.60
2019,03,18,06,34,5.50
2019,03,18,06,35,5.40
2019,03,18,06,36,5.30
2019,03,18,06,37,5.20
2019,03,18,06,38,5.10
2019,03,18,06,39,5.00
2019,03,18,06,40,5.00
2019,03,18,06,41,4.90
2019,03,18,06,42,4.80
2019,03,18,06,43,4.80
2019,03,18,06,44,4.70
2019,03,18,06,45,4.60
2019,03,18,06,46,4.50
2019,03,18,06,47,4.50
2019,03,18,06,48,4.40
2019,03,18,06,49,4.30
2019,03,18,06,50,4.30
2019,03,18,06,51,4.20
2019,03,18,06,52,4.10
2019,03,18,06,53,4.10
2019,03,18,06,54,4.10
2019,03,18,06,55,4.10
2019,03,18,06,56,4.10
2019,03,18,06,57,4.10
2019,03,18,06,58,4.10
2019,03,18,06,59,4.20
2019,03,18,07,00,4.20
2019,03,18,07,01,4.20
2019,03,18,07,02,4.20
2019,03,18,07,03,4.20
2019,03,18,07,04,4.10
2019,03,18,07,05,4.10
2019,03,18,07,06,4.10
2019,03,18,07,07,4.10
2019,03,18,07,08,4.10
2019,03,18,07,09,4.10
2019,03,18,07,10,4.00
2019,03,18,07,11,4.00
2019,03,18,07,12,4.00
2019,03,18,07,13,4.00
2019,03,18,07,14,4.00
2019,03,18,07,15,3.90
2019,03,18,07,16,3.80
2019,03,18,07,17,3.70
2019,03,18,07,18,3.60
2019,03,18,07,19,3.50
2019,03,18,07,20,3.40
2019,03,18,07,21,3.30
2019,03,18,07,22,3.30
2019,03,18,07,23,3.20
2019,03,18,07,24,3.20
2019,03,18,07,25,3.10
2019,03,18,07,26,3.10
2019,03,18,07,27,3.00
2019,03,18,07,28,3.00
2019,03,18,07,29,2.90
2019,03,18,07,30,2.90
2019,03,18,07,31,2.90
2019,03,18,07,32,2.90
2019,03,18,07,33,2.90
2019,03,18,07,34,2.90
2019,03,18,07,35,3.00
2019,03,18,07,36,3.10
2019,03,18,07,37,3.20
2019,03,18,07,38,3.30
2019,03,18,07,39,3.40
2019,03,18,07,40,3.50
2019,03,18,07,41,3.50
2019,03,18,07,42,3.60
2019,03,18,07,43,3.70
2019,03,18,07,44,3.80
2019,03,18,07,45,3.90
2019,03,18,07,46,4.00
2019,03,18,07,47,4.20
2019,03,18,07,48,4.30
2019,03,18,07,49,4.40
2019,03,18,07,50,4.50
2019,03,18,07,51,4.60
2019,03,18,07,52,4.70
2019,03,18,07,53,4.80
2019,03,18,07,54,4.80
2019,03,18,07,55,4.80
2019,03,18,07,56,4.90
2019,03,18,07,57,4.90
2019,03,18,07,58,5.00
2019,03,18,07,59,5.00
2019,03,18,08,00,5.10
2019,03,18,08,01,5.10
2019,03,18,08,02,5.20
2019,03,18,08,03,5.20
2019,03,18,08,04,5.30
2019,03,18,08,05,5.30
2019,03,18,08,06,5.30
2019,03,18,08,07,5.30
2019,03,18,08,08,5.30
2019,03,18,08,09,5.30
2019,03,18,08,10,5.40
2019,03,18,08,11,5.40
2019,03,18,08,12,5.40
2019,03,18,08,13,5.40
2019,03,18,08,14,5.50
2019,03,18,08,15,5.50
2019,03,18,08,16,5.50
2019,03,18,08,17,5.50
2019,03,18,08,18,5.50
2019,03,18,08,19,5.50
2019,03,18,08,20,5.50
2019,03,18,08,21,5.50
2019,03,18,08,22,5.60
2019,03,18,08,23,5.60
2019,03,18,08,24,5.70
2019,03,18,08,25,5.70
2019,03,18,08,26,5.70
2019,03,18,08,27,5.80
2019,03,18,08,28,5.90
2019,03,18,08,29,5.90
2019,03,18,08,30,6.00
2019,03,18,08,31,6.10
2019,03,18,08,32,6.20
2019,03,18,08,33,6.30
2019,03,18,08,34,6.30
2019,03,18,08,35,6.40
2019,03,18,08,36,6.60
2019,03,18,08,37,6.80
2019,03,18,08,38,6.90
2019,03,18,08,39,7.10
2019,03,18,08,40,7.30
2019,03,18,08,41,7.60
2019,03,18,08,42,7.80
2019,03,18,08,43,8.00
2019,03,18,08,44,8.20
2019,03,18,08,45,8.50
2019,03,18,08,46,8.70
2019,03,18,08,47,8.90
2019,03,18,08,48,9.10
2019,03,18,08,49,9.30
2019,03,18,08,50,9.50
2019,03,18,08,51,9.60
2019,03,18,08,52,9.80
2019,03,18,08,53,9.90
2019,03,18,08,54,10.00
2019,03,18,08,55,10.10
2019,03,18,08,56,10.30
2019,03,18,08,57,10.40
2019,03,18,08,58,10.50
2019,03,18,08,59,10.60
2019,03,18,09,00,10.70
2019,03,18,09,01,10.70
2019,03,18,09,02,10.80
2019,03,18,09,03,10.90
2019,03,18,09,04,11.00
2019,03,18,09,05,11.00
2019,03,18,09,06,11.10
2019,03,18,09,07,11.20
2019,03,18,09,08,11.20
2019,03,18,09,09,11.30
2019,03,18,09,10,11.30
2019,03,18,09,11,11.40
2019,03,18,09,12,11.40
2019,03,18,09,13,11.50
2019,03,18,09,14,11.60
2019,03,18,09,15,11.60
2019,03,18,09,16,11.70
2019,03,18,09,17,11.70
2019,03,18,09,18,11.80
2019,03,18,09,19,11.80
2019,03,18,09,20,11.90
2019,03,18,09,21,11.90
2019,03,18,09,22,12.00
2019,03,18,09,23,12.00
2019,03,18,09,24,12.00
2019,03,18,09,25,12.10
2019,03,18,09,26,12.10
2019,03,18,09,27,12.10
2019,03,18,09,28,12.20
2019,03,18,09,29,12.20
2019,03,18,09,30,12.30
2019,03,18,09,31,12.30
2019,03,18,09,32,12.30
2019,03,18,09,33,12.30
2019,03,18,09,34,12.30
2019,03,18,09,35,12.30
2019,03,18,09,36,12.30
2019,03,18,09,37,12.30
2019,03,18,09,38,12.30
2019,03,18,09,39,12.30
2019,03,18,09,40,12.40
2019,03,18,09,41,12.40
2019,03,18,09,42,12.40
2019,03,18,09,43,12.40
2019,03,18,09,44,12.40
2019,03,18,09,45,12.40
2019,03,18,09,46,12.50
2019,03,18,09,47,12.50
2019,03,18,09,48,12.50
2019,03,18,09,49,12.60
2019,03,18,09,50,12.60
2019,03,18,09,51,12.60
2019,03,18,09,52,12.60
2019,03,18,09,53,12.60
2019,03,18,09,54,12.60
2019,03,18,09,55,12.60
2019,03,18,09,56,12.60
2019,03,18,09,57,12.60
2019,03,18,09,58,12.60
2019,03,18,09,59,12.60
2019,03,18,10,00,12.60
2019,03,18,10,01,12.60
2019,03,18,10,02,12.60
2019,03,18,10,03,12.60
2019,03,18,10,04,12.60
2019,03,18,10,05,12.60
2019,03,18,10,06,12.60
2019,03,18,10,07,12.60
2019,03,18,10,08,12.70
2019,03,18,10,09,12.70
2019,03,18,10,10,12.70
2019,03,18,10,11,12.70
2019,03,18,10,12,12.80
2019,03,18,10,13,12.80
2019,03,18,10,14,12.80
2019,03,18,10,15,12.80
2019,03,18,10,16,12.80
2019,03,18,10,17,12.80
2019,03,18,10,18,12.80
2019,03,18,10,19,12.90
2019,03,18,10,20,12.90
2019,03,18,10,21,12.90
2019,03,18,10,22,12.80
2019,03,18,10,23,12.80
2019,03,18,10,24,12.80
2019,03,18,10,25,12.80
2019,03,18,10,26,12.80
2019,03,18,10,27,12.90
2019,03,18,10,28,12.90
2019,03,18,10,29,12.90
2019,03,18,10,30,12.90
2019,03,18,10,31,13.00
2019,03,18,10,32,13.00
2019,03,18,10,33,13.00
2019,03,18,10,34,13.00
2019,03,18,10,35,13.00
2019,03,18,10,36,13.10
2019,03,18,10,37,13.10
2019,03,18,10,38,13.10
2019,03,18,10,39,13.10
2019,03,18,10,40,13.10
2019,03,18,10,41,13.10
2019,03,18,10,42,13.10
2019,03,18,10,43,13.20
2019,03,18,10,44,13.20
2019,03,18,10,45,13.30
2019,03,18,10,46,13.30
2019,03,18,10,47,13.30
2019,03,18,10,48,13.40
2019,03,18,10,49,13.40
2019,03,18,10,50,13.50
2019,03,18,10,51,13.60
2019,03,18,10,52,13.60
2019,03,18,10,53,13.60
2019,03,18,10,54,13.60
2019,03,18,10,55,13.60
2019,03,18,10,56,13.60
2019,03,18,10,57,13.70
2019,03,18,10,58,13.70
2019,03,18,10,59,13.70
2019,03,18,11,00,13.70
2019,03,18,11,01,13.70
2019,03,18,11,02,13.80
2019,03,18,11,03,13.90
2019,03,18,11,04,13.90
2019,03,18,11,05,14.00
2019,03,18,11,06,14.00
2019,03,18,11,07,14.00
2019,03,18,11,08,14.10
2019,03,18,11,09,14.10
2019,03,18,11,10,14.10
2019,03,18,11,11,14.10
2019,03,18,11,12,14.20
2019,03,18,11,13,14.20
2019,03,18,11,14,14.20
2019,03,18,11,15,14.20
2019,03,18,11,16,14.20
2019,03,18,11,17,14.20
2019,03,18,11,18,14.20
2019,03,18,11,19,14.20
2019,03,18,11,20,14.20
2019,03,18,11,21,14.20
2019,03,18,11,22,14.20
2019,03,18,11,23,14.20
2019,03,18,11,24,14.20
2019,03,18,11,25,14.20
2019,03,18,11,26,14.20
2019,03,18,11,27,14.30
2019,03,18,11,28,14.30
2019,03,18,11,29,14.30
2019,03,18,11,30,14.30
2019,03,18,11,31,14.30
2019,03,18,11,32,14.20
2019,03,18,11,33,14.30
2019,03,18,11,34,14.30
2019,03,18,11,35,14.20
2019,03,18,11,36,14.20
2019,03,18,11,37,14.10
2019,03,18,11,38,14.00
2019,03,18,11,39,13.90
2019,03,18,11,40,13.90
2019,03,18,11,41,14.00
2019,03,18,11,42,14.00
2019,03,18,11,43,14.10
2019,03,18,11,44,14.10
2019,03,18,11,45,14.10
2019,03,18,11,46,14.10
2019,03,18,11,47,14.10
2019,03,18,11,48,14.20
2019,03,18,11,49,14.20
2019,03,18,11,50,14.20
2019,03,18,11,51,14.20
2019,03,18,11,52,14.20
2019,03,18,11,53,14.30
2019,03,18,11,54,14.30
2019,03,18,11,55,14.30
2019,03,18,11,56,14.30
2019,03,18,11,57,14.40
2019,03,18,11,58,14.30
2019,03,18,11,59,14.30
2019,03,18,12,00,14.30
2019,03,18,12,01,14.30
2019,03,18,12,02,14.30
2019,03,18,12,03,14.30
2019,03,18,12,04,14.30
2019,03,18,12,05,14.30
2019,03,18,12,06,14.30
2019,03,18,12,07,14.30
2019,03,18,12,08,14.30
2019,03,18,12,09,14.30
2019,03,18,12,10,14.30
2019,03,18,12,11,14.30
2019,03,18,12,12,14.30
2019,03,18,12,13,14.40
2019,03,18,12,14,14.50
2019,03,18,12,15,14.50
2019,03,18,12,16,14.60
2019,03,18,12,17,14.60
2019,03,18,12,18,14.60
2019,03,18,12,19,14.70
2019,03,18,12,20,14.70
2019,03,18,12,21,14.70
2019,03,18,12,22,14.70
2019,03,18,12,23,14.80
2019,03,18,12,24,14.80
2019,03,18,12,25,14.80
2019,03,18,12,26,14.80
2019,03,18,12,27,14.80
2019,03,18,12,28,14.80
2019,03,18,12,29,14.90
2019,03,18,12,30,14.90
2019,03,18,12,31,15.00
2019,03,18,12,32,15.00
2019,03,18,12,33,15.10
2019,03,18,12,34,15.10
2019,03,18,12,35,15.10
2019,03,18,12,36,15.20
2019,03,18,12,37,15.20
2019,03,18,12,38,15.30
2019,03,18,12,39,15.30
2019,03,18,12,40,15.30
2019,03,18,12,41,15.30
2019,03,18,12,42,15.30
2019,03,18,12,43,15.40
2019,03,18,12,44,15.40
2019,03,18,12,45,15.40
2019,03,18,12,46,15.50
2019,03,18,12,47,15.60
2019,03,18,12,48,15.60
2019,03,18,12,49,15.60
2019,03,18,12,50,15.70
2019,03,18,12,51,15.70
2019,03,18,12,52,15.70
2019,03,18,12,53,15.70
2019,03,18,12,54,15.70
2019,03,18,12,55,15.70
2019,03,18,12,56,15.70
2019,03,18,12,57,15.70
2019,03,18,12,58,15.70
2019,03,18,12,59,15.70
2019,03,18,13,00,15.80
2019,03,18,13,01,15.80
2019,03,18,13,02,15.90
2019,03,18,13,03,15.90
2019,03,18,13,04,16.00
2019,03,18,13,05,16.10
2019,03,18,13,06,16.00
2019,03,18,13,07,16.00
2019,03,18,13,08,16.00
2019,03,18,13,09,16.00
2019,03,18,13,10,16.00
2019,03,18,13,11,16.00
2019,03,18,13,12,16.00
2019,03,18,13,13,16.00
2019,03,18,13,14,16.10
2019,03,18,13,15,16.10
2019,03,18,13,16,16.20
2019,03,18,13,17,16.20
2019,03,18,13,18,16.20
2019,03,18,13,19,16.20
2019,03,18,13,20,16.20
2019,03,18,13,21,16.20
2019,03,18,13,22,16.20
2019,03,18,13,23,16.30
2019,03,18,13,24,16.30
2019,03,18,13,25,16.30
2019,03,18,13,26,16.30
2019,03,18,13,27,16.30
2019,03,18,13,28,16.40
2019,03,18,13,29,16.40
2019,03,18,13,30,16.40
2019,03,18,13,31,16.40
2019,03,18,13,32,16.40
2019,03,18,13,33,16.40
2019,03,18,13,34,16.40
2019,03,18,13,35,16.40
2019,03,18,13,36,16.40
2019,03,18,13,37,16.40
2019,03,18,13,38,16.40
2019,03,18,13,39,16.40
2019,03,18,13,40,16.40
2019,03,18,13,41,16.50
2019,03,18,13,42,16.50
2019,03,18,13,43,16.50
2019,03,18,13,44,16.50
2019,03,18,13,45,16.50
2019,03,18,13,46,16.60
2019,03,18,13,47,16.60
2019,03,18,13,48,16.70
2019,03,18,13,49,16.70
2019,03,18,13,50,16.80
2019,03,18,13,51,16.80
2019,03,18,13,52,16.80
2019,03,18,13,53,16.80
2019,03,18,13,54,16.90
2019,03,18,13,55,16.90
2019,03,18,13,56,17.00
2019,03,18,13,57,17.00
2019,03,18,13,58,17.10
2019,03,18,13,59,17.00
2019,03,18,14,00,17.10
2019,03,18,14,01,17.10
2019,03,18,14,02,17.10
2019,03,18,14,03,17.20
2019,03,18,14,04,17.20
2019,03,18,14,05,17.20
2019,03,18,14,06,17.30
2019,03,18,14,07,17.30
2019,03,18,14,08,17.40
2019,03,18,14,09,17.40
2019,03,18,14,10,17.40
2019,03,18,14,11,17.50
2019,03,18,14,12,17.50
2019,03,18,14,13,17.50
2019,03,18,14,14,17.50
2019,03,18,14,15,17.50
2019,03,18,14,16,17.40
2019,03,18,14,17,17.40
2019,03,18,14,18,17.40
2019,03,18,14,19,17.50
2019,03,18,14,20,17.60
2019,03,18,14,21,17.70
2019,03,18,14,22,17.70
2019,03,18,14,23,17.80
2019,03,18,14,24,17.70
2019,03,18,14,25,17.70
2019,03,18,14,26,17.70
2019,03,18,14,27,17.70
2019,03,18,14,28,17.70
2019,03,18,14,29,17.80
2019,03,18,14,30,17.70
2019,03,18,14,31,17.70
2019,03,18,14,32,17.80
2019,03,18,14,33,17.80
2019,03,18,14,34,17.80
2019,03,18,14,35,17.70
2019,03,18,14,36,17.70
2019,03,18,14,37,17.80
2019,03,18,14,38,17.90
2019,03,18,14,39,17.90
2019,03,18,14,40,17.90
2019,03,18,14,41,17.90
2019,03,18,14,42,17.90
2019,03,18,14,43,17.90
2019,03,18,14,44,17.90
2019,03,18,14,45,17.90
2019,03,18,14,46,18.00
2019,03,18,14,47,18.00
2019,03,18,14,48,17.90
2019,03,18,14,49,18.00
2019,03,18,14,50,18.00
2019,03,18,14,51,18.00
2019,03,18,14,52,18.00
2019,03,18,14,53,17.90
2019,03,18,14,54,17.90
2019,03,18,14,55,17.90
2019,03,18,14,56,17.90
2019,03,18,14,57,18.00
2019,03,18,14,58,18.00
2019,03,18,14,59,18.00
2019,03,18,15,00,18.00
2019,03,18,15,01,18.00
2019,03,18,15,02,18.00
2019,03,18,15,03,17.90
2019,03,18,15,04,17.90
2019,03,18,15,05,17.90
2019,03,18,15,06,17.90
2019,03,18,15,07,18.00
2019,03,18,15,08,18.00
2019,03,18,15,09,18.00
2019,03,18,15,10,18.00
2019,03,18,15,11,18.10
2019,03,18,15,12,18.10
2019,03,18,15,13,18.10
2019,03,18,15,14,18.10
2019,03,18,15,15,18.20
2019,03,18,15,16,18.20
2019,03,18,15,17,18.20
2019,03,18,15,18,18.30
2019,03,18,15,19,18.30
2019,03,18,15,20,18.30
2019,03,18,15,21,18.40
2019,03,18,15,22,18.40
2019,03,18,15,23,18.50
2019,03,18,15,24,18.50
2019,03,18,15,25,18.60
2019,03,18,15,26,18.60
2019,03,18,15,27,18.70
2019,03,18,15,28,18.70
2019,03,18,15,29,18.80
2019,03,18,15,30,18.80
2019,03,18,15,31,18.80
2019,03,18,15,32,18.70
2019,03,18,15,33,18.70
2019,03,18,15,34,18.70
2019,03,18,15,35,18.70
2019,03,18,15,36,18.70
2019,03,18,15,37,18.70
2019,03,18,15,38,18.70
2019,03,18,15,39,18.80
2019,03,18,15,40,18.80
2019,03,18,15,41,18.80
2019,03,18,15,42,18.80
2019,03,18,15,43,18.80
2019,03,18,15,44,18.80
2019,03,18,15,45,18.80
2019,03,18,15,46,18.90
2019,03,18,15,47,19.00
2019,03,18,15,48,19.00
2019,03,18,15,49,19.10
2019,03,18,15,50,19.10
2019,03,18,15,51,19.10
2019,03,18,15,52,19.10
2019,03,18,15,53,19.10
2019,03,18,15,54,19.10
2019,03,18,15,55,19.20
2019,03,18,15,56,19.20
2019,03,18,15,57,19.20
2019,03,18,15,58,19.20
2019,03,18,15,59,19.20
2019,03,18,16,00,19.10
2019,03,18,16,01,19.10
2019,03,18,16,02,19.10
2019,03,18,16,03,19.10
2019,03,18,16,04,19.10
2019,03,18,16,05,19.00
2019,03,18,16,06,19.00
2019,03,18,16,07,19.00
2019,03,18,16,08,19.00
2019,03,18,16,09,18.90
2019,03,18,16,10,18.90
2019,03,18,16,11,19.00
2019,03,18,16,12,19.00
2019,03,18,16,13,19.00
2019,03,18,16,14,19.00
2019,03,18,16,15,18.90
2019,03,18,16,16,18.90
2019,03,18,16,17,18.90
2019,03,18,16,18,18.80
2019,03,18,16,19,18.80
2019,03,18,16,20,18.80
2019,03,18,16,21,18.80
2019,03,18,16,22,18.80
2019,03,18,16,23,18.80
2019,03,18,16,24,18.80
2019,03,18,16,25,18.70
2019,03,18,16,26,18.70
2019,03,18,16,27,18.70
2019,03,18,16,28,18.70
2019,03,18,16,29,18.70
2019,03,18,16,30,18.70
2019,03,18,16,31,18.70
2019,03,18,16,32,18.80
2019,03,18,16,33,18.70
2019,03,18,16,34,18.70
2019,03,18,16,35,18.70
2019,03,18,16,36,18.70
2019,03,18,16,37,18.70
2019,03,18,16,38,18.70
2019,03,18,16,39,18.70
2019,03,18,16,40,18.70
2019,03,18,16,41,18.70
2019,03,18,16,42,18.70
2019,03,18,16,43,18.70
2019,03,18,16,44,18.80
2019,03,18,16,45,18.80
2019,03,18,16,46,18.80
2019,03,18,16,47,18.80
2019,03,18,16,48,18.90
2019,03,18,16,49,18.90
2019,03,18,16,50,18.90
2019,03,18,16,51,18.90
2019,03,18,16,52,18.80
2019,03,18,16,53,18.80
2019,03,18,16,54,18.80
2019,03,18,16,55,18.70
2019,03,18,16,56,18.70
2019,03,18,16,57,18.70
2019,03,18,16,58,18.70
2019,03,18,16,59,18.70
2019,03,18,17,00,18.70
2019,03,18,17,01,18.70
2019,03,18,17,02,18.70
2019,03,18,17,03,18.70
2019,03,18,17,04,18.70
2019,03,18,17,05,18.70
2019,03,18,17,06,18.70
2019,03,18,17,07,18.60
2019,03,18,17,08,18.50
2019,03,18,17,09,18.50
2019,03,18,17,10,18.40
2019,03,18,17,11,18.40
2019,03,18,17,12,18.40
2019,03,18,17,13,18.40
2019,03,18,17,14,18.30
2019,03,18,17,15,18.30
2019,03,18,17,16,18.30
2019,03,18,17,17,18.30
2019,03,18,17,18,18.30
2019,03,18,17,19,18.20
2019,03,18,17,20,18.20
2019,03,18,17,21,18.20
2019,03,18,17,22,18.20
2019,03,18,17,23,18.20
2019,03,18,17,24,18.20
2019,03,18,17,25,18.20
2019,03,18,17,26,18.20
2019,03,18,17,27,18.20
2019,03,18,17,28,18.20
2019,03,18,17,29,18.20
2019,03,18,17,30,18.20
2019,03,18,17,31,18.20
2019,03,18,17,32,18.20
2019,03,18,17,33,18.20
2019,03,18,17,34,18.20
2019,03,18,17,35,18.10
2019,03,18,17,36,18.10
2019,03,18,17,37,18.10
2019,03,18,17,38,18.00
2019,03,18,17,39,18.00
2019,03,18,17,40,17.90
2019,03,18,17,41,17.90
2019,03,18,17,42,17.90